TUBIN
1 48900U 21059X   25242.30417635  .00073118  00000-0  65901-3 0  9996
2 48900  97.6785  58.6307 0002543 276.9607  83.1363 15.67951528232814
LEDSAT
1 49069U 21073D   25241.81398621  .00182774  00000-0  12259-2 0  9993
2 49069  97.3796 327.4366 0006615 151.6891 208.4735 15.74675641224150
CUTE
1 49263U 21088D   25242.16081765  .00041186  00000-0  71739-3 0  9992
2 49263  97.4447 320.9643 0004927 299.5534  60.5226 15.50632804217057
TeikyoSat 4
1 49396U 21102B   25242.04646320  .00003311  00000-0  21917-3 0  9998
2 49396  97.4047 277.5253 0011716 207.5797 152.4811 15.07943995208822
Z-Sat
1 49399U 21102E   25242.07276916  .00005842  00000-0  31500-3 0  9994
2 49399  97.3742 281.1640 0018078 176.0494 184.0884 15.15010705209318
KOSEN 1
1 49402U 21102H   25242.06417894  .00009872  00000-0  44301-3 0  9990
2 49402  97.3642 285.2032 0016584 149.0988 211.1227 15.21261958209677
HO-113
1 50466U 21131B   25242.28741769  .00000849  00000-0  27839-3 0  9991
2 50466  98.5089 331.2390 0003148 242.6709 117.4159 14.40897703193216
SNUGLITE 2
1 52899U 22065F   25242.13547553  .00001741  00000-0  34600-3 0  9995
2 52899  98.1801  23.3721 0006961 209.7393 150.3414 14.63384987168416
UmKA 1 (RS40S)
1 57172U 23091G   25242.13698346  .00007903  00000-0  41159-3 0  9994
2 57172  97.5507 297.1060 0015327  57.0742 303.1962 15.16180637119839
CubeBel-2 (EU11S)
1 57175U 23091K   25242.20389790  .00014432  00000-0  65791-3 0  9998
2 57175  97.5505 298.8446 0012943  63.2759 296.9799 15.20681746119956
ENSO
1 58470U 23185J   25242.27857581  .00123310  00000-0  11870-2 0  9990
2 58470  97.3648 320.5309 0006153 150.1776 209.9836 15.66129673 97770
EIRSAT-1
1 58472U 23185L   25239.67952054  .00781410  29239-3  14265-2 0  9993
2 58472  97.3482 321.9424 0007544 237.6011 122.4539 16.01392532 97640
SONATE-2
1 59112U 24043Q   25241.94411795  .00025813  00000-0  68422-3 0  9999
2 59112  97.5230  14.9401 0010615 179.2263 180.9000 15.38262876 82835
MO-122
1 60209U 24125G   25242.13048221  .00028802  00000-0  74760-3 0  9994
2 60209  97.2706  92.9481 0017105 198.5883 161.4740 15.38789891 64483
GRBBeta
1 60237U 24128C   25242.10483682  .00007268  00000-0  53036-3 0  9995
2 60237  61.9911 155.1758 0056471  75.1151 285.6185 15.03264123 62451
Curium One
1 60242U 24128H   25242.12852353  .00012675  00000-0  84272-3 0  9992
2 60242  61.9804 152.0995 0056478  71.7650 288.9578 15.06208184 62517
ROBUSTA-3A
1 60243U 24128J   25242.09125740  .00012960  00000-0  87468-3 0  9999
2 60243  61.9878 153.3420 0055702  69.2976 291.4075 15.05676743 62495
CatSat
1 60246U 24125J   25242.11832142  .00026036  00000-0  80979-3 0  9992
2 60246  97.2522  91.1862 0041299 161.2939 198.9832 15.32441712 62468
HYPERVIEW-1G (RS66S)
1 61772U 24199AP  25242.12405635  .00032031  00000-0  83772-3 0  9998
2 61772  97.3403 110.9318 0010570 256.7187 103.2879 15.38631097 89485
AO-123
1 61781U 24199AY  25242.13296240  .00010684  00000-0  37679-3 0  9994
2 61781  97.3424 108.8480 0013581 268.3720  91.5965 15.29352714 89347
ZIMSAT 2
1 61783U 24199BA  25242.09653284  .00063553  00000-0  12657-2 0  9997
2 61783  97.3363 112.2788 0009392 246.3376 113.6889 15.46645887 92721
HADES-R (SO-124)
1 62690U 25009CK  25241.74928290  .00061328  00000-0  18086-2 0  9999
2 62690  97.4029 322.5187 0003620 163.9623 196.1736 15.34779244 34573
HYDRA-T
1 62692U 25009CM  25242.10862687  .00064918  00000-0  18850-2 0  9996
2 62692  97.4032 322.9530 0003536 160.9814 199.1563 15.35251772 34630
JINJUSat 1B
1 63210U 25052A   25241.95390505  .00016533  00000-0  71992-3 0  9995
2 63210  97.4291 135.0855 0005753  56.8317 303.3470 15.22278501 25621
NUSHSAT 1
1 63211U 25052B   25241.66923943  .00018648  00000-0  80176-3 0  9995
2 63211  97.4279 134.8322 0005917  61.1838 298.9992 15.22685852 25587
TEVEL2-4
1 63213U 25052D   25241.96347391  .00018118  00000-0  78764-3 0  9999
2 63213  97.4196 134.8701 0005404  74.0109 286.1722 15.22316966 25625
TEVEL2-5
1 63214U 25052E   25241.96543544  .00018139  00000-0  78934-3 0  9990
2 63214  97.4199 134.8680 0005440  74.3388 285.8448 15.22283044 25628
TEVEL2-6
1 63215U 25052F   25241.96970686  .00018057  00000-0  78668-3 0  9995
2 63215  97.4198 134.8648 0005495  74.8112 285.3732 15.22243341 25629
TEVEL2-1
1 63217U 25052H   25241.92727287  .00017341  00000-0  76121-3 0  9997
2 63217  97.4171 134.7152 0005730  83.0901 277.0987 15.21994382 25617
TEVEL2-3
1 63218U 25052J   25241.66443721  .00017433  00000-0  76529-3 0  9991
2 63218  97.4173 134.4572 0005734  83.9809 276.2080 15.21991153 25576
TEVEL2-2
1 63219U 25052K   25241.66496351  .00017801  00000-0  78153-3 0  9993
2 63219  97.4169 134.4554 0005751  83.9516 276.2376 15.21981587 25574
TEVEL2-9
1 63237U 25052AD  25241.66463511  .00017032  00000-0  77579-3 0  9992
2 63237  97.4237 134.2916 0010067  92.3267 267.9121 15.20700462 25556
TEVEL2-7
1 63238U 25052AE  25241.67068856  .00015964  00000-0  72915-3 0  9998
2 63238  97.4236 134.2874 0010183  92.2149 268.0253 15.20618191 25551
TEVEL2-8
1 63239U 25052AF  25242.13500976  .00018045  00000-0  82386-3 0  9991
2 63239  97.4234 134.7345 0010148  91.1914 269.0484 15.20605444 25629
HYDRA-W
1 63490U 25052BL  25241.18463348  .00046025  00000-0  17158-2 0  9998
2 63490  97.4180 134.6624 0013662  90.2020 270.0785 15.27200723 25544
HADES-ICM (SO-125)
1 63492U 25052BN  25241.68700832  .00041044  00000-0  15614-2 0  9998
2 63492  97.4187 135.0737 0014003  92.0020 268.2823 15.26552442 25610
